Starlink 32584

operational
NORAD ID: 62179 Int'l Des: 2024-225 Owner: SPXS Country: US Constellation: starlink
LEOCIRCULAR

关于 Starlink 32584

正在加载描述...

实时位置

正在加载3D地球...

即将过境

高度历史

Altitude vs Time

uPlot chart will show altitude changes over time

两行轨道根数

1 62179U 24225S 25303.96252170 .00018669 00000-0 15674-2 0 9990
2 62179 70.0029 131.4635 0001804 254.1074 105.9886 14.98351837 50443
Epoch: Oct 30, 2025 • Age: 16 hours

当前状态

高度 593.6 km
速度 7.56 km/s
星下点 -60.40°S, 172.26°W
发射日期 Nov 30, 2024
运行时间 0.9 years
类型 internet

技术详情

分类 Payload
质量 730.00 kg
干质量 700.00 kg
总质量 730.00 kg
长度 0.30 m
直径 4.10 m
跨度 29.00 m
形状 Box + pan
制造商 SPXS
平台类型 Starlink V2M
阶段状态 In Orbit
所有者/国家 SPXS/US

大型星座

Loading constellations...